FW1093 Weather Reports


time (UTC)temp
C
wind
direction
speed
KPH
gust
KPH
rain 1hr
cm
rain 24hr
cm
rain mn
cm
humidity
%
barometer
mb
20260509195342 12 290 0.0 0.0 0.81 1.09 1.07 93 1012.2
20260509194330 12 290 0.0 0.0 0.79 1.04 1.02 93 1012.2
20260509193319 12 354 0.0 0.0 0.74 0.91 0.89 92 1012.2
20260509192335 13 354 0.0 0.0 0.46 0.53 0.51 92 1012.1
20260509191329 13 153 0.0 1.6 0.25 0.33 0.30 91 1012.1
20260509190315 13 153 0.0 0.0 0.20 0.28 0.25 90 1011.8
20260509185322 13 153 0.0 1.6 0.20 0.28 0.25 88 1011.6
20260509184313 13 198 0.0 4.8 0.18 0.25 0.23 86 1011.3
20260509183348 15 153 0.0 1.6 0.10 0.18 0.15 82 1011.6
20260509182315 15 129 0.0 1.6 0.00 0.08 0.05 77 1011.4
20260509181323 15 129 0.0 0.0 0.00 0.08 0.05 75 1011.1
20260509180313 16 129 0.0 1.6 0.00 0.08 0.05 73 1011.3
20260509175408 16 129 0.0 0.0 0.00 0.08 0.05 73 1011.2
20260509174315 16 129 0.0 1.6 0.00 0.08 0.05 70 1011.2
20260509173330 16 124 0.0 0.0 0.00 0.08 0.05 71 1011.2
20260509172320 17 284 0.0 1.6 0.00 0.08 0.05 70 1011.5
20260509171336 16 49 0.0 4.8 0.00 0.08 0.05 71 1011.7
20260509170325 16 134 0.0 1.6 0.00 0.08 0.05 73 1011.7
20260509165315 16 117 0.0 1.6 0.00 0.08 0.05 73 1012.0
20260509164329 16 297 0.0 1.6 0.00 0.08 0.05 74 1012.2
20260509163320 15 278 0.0 3.2 0.00 0.08 0.05 74 1012.3
20260509162314 15 132 0.0 1.6 0.00 0.08 0.05 76 1012.5
20260509161322 15 326 1.6 4.8 0.00 0.08 0.05 77 1012.6
20260509160352 14 209 0.0 1.6 0.00 0.08 0.05 79 1012.8
20260509155325 14 167 0.0 3.2 0.00 0.08 0.05 78 1012.8
20260509154332 14 118 0.0 3.2 0.00 0.08 0.05 79 1012.8
20260509153322 14 133 0.0 1.6 0.00 0.08 0.05 80 1012.8